Regional Weather Roundup
Issued by NWS Albany, NY

Home | Current Version | Previous Version | Text Only | Print | Product List | Glossary On
Versions: 1 2 3 4 5 6 7 8 9 10 11 12 13 14 15 16 17 18 19 20 21 22 23 24 25 26
000
ASUS41 KALY 261810
RWRALY

NEW YORK STATE HOURLY WEATHER ROUNDUP
NATIONAL WEATHER SERVICE ALBANY NY
200 PM EDT THU MAY 26 2016

NOTE: "FAIR" INDICATES FEW OR NO CLOUDS BELOW 12,000 FEET WITH NO
SIGNIFICANT WEATHER AND/OR NO OBSTRUCTIONS TO VISIBILITY.

NYZ032-033-038>043-046>054-057>066-NYZ062>081-082-084-261900-
EAST


CITY           SKY/WX    TMP DP  RH WIND       PRES   REMARKS
ALBANY         CLOUDY    84  58  40 CALM      30.05F
GLENS FALLS    MOSUNNY   81  57  43 S8        30.05F
POUGHKEEPSIE   MOSUNNY   88  57  34 S3        30.03F
NEWBURGH       MOSUNNY   86  55  35 CALM      30.06F
MONTGOMERY     PTSUNNY   87  56  34 CALM      30.04F
WHITE PLAINS   MOSUNNY   86  54  33 SE9       30.05F
ISLIP          PTSUNNY   83  55  38 S10       30.07F
NEW YORK CITY  PTSUNNY   91  53  27 SW10      30.04F
CENTRAL PARK   SUNNY     89  48  24 VRB5      30.07F
$$

NYZ005>009-017-018-044>046-055-056-261900-
CENTRAL


CITY           SKY/WX    TMP DP  RH WIND       PRES   REMARKS
FULTON         MOSUNNY   86  59  39 VRB3      30.01F
SYRACUSE       CLOUDY    85  58  39 N8        30.00F
ROME           CLOUDY    84  60  44 SE3       30.03F
ELMIRA         CLOUDY    84  55  36 S10       30.03F
BINGHAMTON     CLOUDY    77  53  43 SW9       30.09S
MONTICELLO     MOSUNNY   82  52  34 SW8       30.11F
$$

NYZ026>034-041>043-087-261900-
NORTH


CITY           SKY/WX    TMP DP  RH WIND       PRES   REMARKS
WATERTOWN      CLOUDY    77  55  46 W3        30.01F
FORT DRUM      NOT AVBL
MASSENA        PTSUNNY   76  49  38 NE12      30.06F
SARANAC LAKE   CLOUDY    79  48  33 VRB5      30.06F
PLATTSBURGH    SUNNY     74  46  36 VRB3      30.08F
$$

NYZ001>004-010>016-019>021-085-261900-
WEST


CITY           SKY/WX    TMP DP  RH WIND       PRES   REMARKS
NIAGARA FALLS  PTSUNNY   83  63  50 SW14G21   29.98F
BUFFALO        MOSUNNY   82  61  48 SW14      29.99F
DUNKIRK        PTSUNNY   76  62  62 NW9       30.00F
JAMESTOWN      PTSUNNY   77  61  57 S12       30.05F
WELLSVILLE     CLOUDY    77  55  46 SW12      30.10F
ROCHESTER      CLOUDY    84  59  42 SW9G17    30.00F
PENN YAN       CLOUDY    83  55  38 S12       30.04F
$$

             KEY
       WCI = WIND CHILL INDEX
       VSB = VISIBILITY
       HX  = HEAT INDEX
$$




USA.gov is the U.S. government's official web portal to all federal, state and local government web resources and services.